Weather History for KLFK - December, 2012

Change the Weather History Date:

Friday, December 14, 2012

  Actual Average Record
Temperature  
Mean Temperature 51 °F 50 °F  
Max Temperature 65 °F 61 °F 82 °F (1975)
Min Temperature 37 °F 39 °F 19 °F (1985)
Degree Days  
Heating Degree Days 14 15  
Month to date heating degree days 111 195  
Since 1 July heating degree days 394 502  
Cooling Degree Days 0 0  
Month to date cooling degree days 38 4  
Year to date cooling degree days 3209 2587  
Moisture  
Dew Point 44 °F    
Average Humidity 66    
Maximum Humidity 84    
Minimum Humidity 47    
Precipitation  
Precipitation T in 0.14 in 1.93 in (1992)
Month to date precipitation 1.25 2.09  
Year to date precipitation 39.97 46.60  
Snow  
Snow 0.00 in - - ()
Month to date snowfall 0.0  
Since 1 July snowfall 0.0  
Snow Depth 0.00 in    
Sea Level Pressure  
Sea Level Pressure 30.09 in    
Wind  
Wind Speed 7 mph (ESE)    
Max Wind Speed 15 mph    
Max Gust Speed 20 mph    
Visibility 10 miles    
Events Rain    
T = Trace of Precipitation, MM = Missing Value Source: NWS Daily Summary

Daily Weather History Graph

Daily Weather History Graph

Search for Another Location

Airport or City:

Trip Planner

Search our weather history database for the weather conditions in past years. The results will help you decide how hot, cold, wet, or windy it might be!

Date:

Astronomy

Dec. 14, 2012 Rise Set
Actual Time 7:09 AM CST 5:18 PM CST
Civil Twilight 6:43 AM CST 5:44 PM CST
Nautical Twilight 6:12 AM CST 6:15 PM CST
Astronomical Twilight 5:43 AM CST 6:44 PM CST
Moon 8:18 AM CST (12/14) 7:07 PM CST (12/14)
Length of Visible Light 11h 01m
Length of Day
10h 08m
Waxing Crescent, 3% of the Moon is Illuminated
Dec 14
Waxing Crescent
Dec 19
First Quarter
Dec 28
Full
Jan 4
Last Quarter
Jan 11
New

Hourly Weather History & Observations

Time (CST) Temp. Windchill Dew Point Humidity Pressure Visibility Wind Dir Wind Speed Gust Speed Precip Events Conditions
12:53 AM 37.0 °F 33.3 °F 30.0 °F 76% 30.22 in 10.0 mi East 4.6 mph - N/A   Clear
1:53 AM 44.1 °F 42.5 °F 34.0 °F 68% 30.22 in 10.0 mi East 3.5 mph - N/A   Overcast
3:53 AM 41.0 °F - 30.9 °F 67% 30.22 in 10.0 mi Calm Calm - N/A   Clear
4:53 AM 39.0 °F 36.8 °F 32.0 °F 76% 30.22 in 10.0 mi North 3.5 mph - N/A   Partly Cloudy
5:53 AM 43.0 °F - 34.0 °F 71% 30.22 in 10.0 mi Calm Calm - N/A   Overcast
6:53 AM 45.0 °F 41.8 °F 35.1 °F 68% 30.22 in 10.0 mi East 5.8 mph - N/A   Overcast
7:53 AM 48.0 °F - 34.0 °F 58% 30.22 in 10.0 mi ESE 5.8 mph - N/A   Overcast
8:53 AM 51.1 °F - 33.1 °F 50% 30.21 in 10.0 mi ESE 9.2 mph - N/A   Overcast
9:53 AM 53.1 °F - 35.1 °F 50% 30.22 in 10.0 mi SE 9.2 mph - N/A   Overcast
10:53 AM 57.0 °F - 37.0 °F 47% 30.21 in 10.0 mi SE 9.2 mph - N/A   Overcast
11:53 AM 59.0 °F - 39.0 °F 48% 30.15 in 10.0 mi ESE 10.4 mph - N/A   Mostly Cloudy
12:53 PM 61.0 °F - 42.1 °F 50% 30.12 in 10.0 mi SE 9.2 mph - N/A   Overcast
1:53 PM 61.0 °F - 44.1 °F 54% 30.07 in 10.0 mi East 6.9 mph - N/A   Mostly Cloudy
2:32 PM 62.6 °F - 46.4 °F 55% 30.05 in 10.0 mi East 5.8 mph - N/A   Overcast
2:53 PM 62.1 °F - 46.9 °F 58% 30.05 in 10.0 mi ESE 5.8 mph - N/A   Overcast
3:53 PM 60.1 °F - 46.9 °F 62% 30.03 in 10.0 mi ESE 9.2 mph - N/A   Overcast
4:53 PM 59.0 °F - 50.0 °F 72% 30.01 in 10.0 mi ESE 5.8 mph - 0.00 in Rain Light Rain
5:53 PM 59.0 °F - 51.1 °F 75% 29.98 in 10.0 mi ESE 11.5 mph - 0.00 in   Overcast
6:53 PM 60.1 °F - 51.1 °F 72% 30.00 in 10.0 mi ESE 8.1 mph - N/A   Overcast
7:53 PM 61.0 °F - 52.0 °F 72% 29.99 in 10.0 mi SE 6.9 mph - N/A   Overcast
8:53 PM 61.0 °F - 54.0 °F 78% 29.98 in 10.0 mi SE 8.1 mph - N/A   Overcast
9:53 PM 63.0 °F - 57.0 °F 81% 29.96 in 10.0 mi SSE 10.4 mph - N/A   Overcast
10:04 PM 64.4 °F - 57.2 °F 77% 29.96 in 10.0 mi SSE 12.7 mph - N/A   Overcast
10:53 PM 64.9 °F - 57.9 °F 78% 29.96 in 10.0 mi SSE 15.0 mph - N/A   Overcast
11:06 PM 64.4 °F - 59.0 °F 83% 29.96 in 10.0 mi SSE 11.5 mph - N/A   Overcast
11:53 PM 64.9 °F - 59.0 °F 81% 29.95 in 10.0 mi SSE 11.5 mph - N/A   Overcast